When you browse on this site, cookies collect data to enhance your experience and personalize the content and advertising you see.
Visit our Privacy Policy to learn more. By continuing to use the site, you agree to this use of cookies and data.

Meteo pe oră la Dziecmorowice

Astăzi, 18 Septembrie, Vineri

Timp Temperatura Precipitaţii Vânt Presiune Umiditate
00:00 +8°C° 0 mm 1 m/s 732 mmHg 78%
01:00 +8°C° 0 mm 1 m/s 732 mmHg 80%
02:00 +8°C° 0 mm 1 m/s 732 mmHg 83%
03:00 +7°C° 0 mm 1 m/s 732 mmHg 86%
04:00 +7°C° 0 mm 1 m/s 732 mmHg 89%
05:00 +7°C° 0 mm 1 m/s 732 mmHg 86%
06:00 +8°C° 0 mm 1 m/s 732 mmHg 84%
07:00 +8°C° 0 mm 0 m/s 733 mmHg 81%
08:00 +10°C° 0 mm 1 m/s 733 mmHg 72%
09:00 +12°C° 0 mm 1 m/s 733 mmHg 63%
10:00 +14°C° 0 mm 2 m/s 733 mmHg 54%
11:00 +14°C° 0 mm 2 m/s 733 mmHg 49%
12:00 +15°C° 0 mm 2 m/s 733 mmHg 45%
13:00 +16°C° 0 mm 2 m/s 733 mmHg 41%
14:00 +16°C° 0 mm 2 m/s 732 mmHg 43%
15:00 +16°C° 0 mm 2 m/s 732 mmHg 46%
16:00 +15°C° 0 mm 2 m/s 731 mmHg 48%
17:00 +14°C° 0 mm 2 m/s 731 mmHg 52%
18:00 +12°C° 0 mm 1 m/s 731 mmHg 56%
19:00 +10°C° 0 mm 1 m/s 731 mmHg 60%
20:00 +10°C° 0 mm 1 m/s 731 mmHg 60%
21:00 +9°C° 0 mm 1 m/s 731 mmHg 61%
22:00 +9°C° 0 mm 1 m/s 731 mmHg 61%
23:00 +9°C° 0 mm 1 m/s 731 mmHg 62%

Mâine, 19 Septembrie, Sâmbătă

Timp Temperatura Precipitaţii Vânt Presiune Umiditate
00:00 +8°C° 0 mm 1 m/s 731 mmHg 62%
01:00 +8°C° 0 mm 1 m/s 730 mmHg 63%
02:00 +8°C° 0 mm 1 m/s 730 mmHg 63%
03:00 +8°C° 0 mm 1 m/s 730 mmHg 64%
04:00 +8°C° 0 mm 1 m/s 729 mmHg 64%
05:00 +8°C° 0 mm 1 m/s 729 mmHg 64%
06:00 +9°C° 0 mm 1 m/s 729 mmHg 64%
07:00 +10°C° 0 mm 1 m/s 729 mmHg 64%
08:00 +12°C° 0 mm 1 m/s 730 mmHg 58%
09:00 +14°C° 0 mm 2 m/s 730 mmHg 51%
10:00 +16°C° 0 mm 2 m/s 730 mmHg 45%
11:00 +17°C° 0 mm 2 m/s 729 mmHg 43%
12:00 +18°C° 0 mm 3 m/s 729 mmHg 42%
13:00 +19°C° 0 mm 3 m/s 729 mmHg 40%
14:00 +18°C° 0 mm 3 m/s 729 mmHg 44%
15:00 +18°C° 0 mm 2 m/s 728 mmHg 47%
16:00 +18°C° 0 mm 2 m/s 728 mmHg 51%
17:00 +16°C° 0 mm 2 m/s 727 mmHg 55%
18:00 +14°C° 0 mm 1 m/s 727 mmHg 59%
19:00 +12°C° 0 mm 1 m/s 727 mmHg 62%
20:00 +12°C° 0 mm 1 m/s 727 mmHg 63%
21:00 +12°C° 0 mm 1 m/s 727 mmHg 63%
22:00 +10°C° 0 mm 0 m/s 727 mmHg 64%
23:00 +10°C° 0 mm 0 m/s 727 mmHg 64%

Poimâine, 20 Septembrie, Duminică

Timp Temperatura Precipitaţii Vânt Presiune Umiditate
00:00 +11°C° 0 mm 1 m/s 726 mmHg 64%
01:00 +11°C° 0 mm 1 m/s 726 mmHg 65%
02:00 +10°C° 0 mm 1 m/s 726 mmHg 65%
03:00 +10°C° 0 mm 1 m/s 726 mmHg 65%
04:00 +10°C° 0 mm 1 m/s 726 mmHg 66%
05:00 +11°C° 0 mm 1 m/s 726 mmHg 66%
06:00 +11°C° 0 mm 1 m/s 726 mmHg 66%
07:00 +12°C° 0 mm 1 m/s 726 mmHg 67%
08:00 +14°C° 0 mm 1 m/s 726 mmHg 61%
09:00 +15°C° 0 mm 1 m/s 726 mmHg 56%
10:00 +18°C° 0 mm 1 m/s 726 mmHg 51%
11:00 +18°C° 0 mm 2 m/s 726 mmHg 49%
12:00 +19°C° 0 mm 2 m/s 726 mmHg 47%
13:00 +20°C° 0 mm 2 m/s 726 mmHg 45%
14:00 +20°C° 0 mm 2 m/s 726 mmHg 48%
15:00 +20°C° 0 mm 2 m/s 725 mmHg 50%
16:00 +19°C° 0 mm 2 m/s 725 mmHg 53%
17:00 +17°C° 0 mm 2 m/s 725 mmHg 60%
18:00 +15°C° 0 mm 1 m/s 725 mmHg 68%
19:00 +13°C° 0 mm 1 m/s 725 mmHg 75%
20:00 +13°C° 0 mm 1 m/s 725 mmHg 76%
21:00 +12°C° 0 mm 1 m/s 725 mmHg 77%
22:00 +11°C° 0 mm 0 m/s 725 mmHg 77%
23:00 +12°C° 0 mm 1 m/s 725 mmHg 77%

21 Septembrie, Luni

Timp Temperatura Precipitaţii Vânt Presiune Umiditate
00:00 +12°C° 0 mm 1 m/s 725 mmHg 76%
01:00 +12°C° 0 mm 1 m/s 724 mmHg 76%
02:00 +12°C° 0 mm 1 m/s 724 mmHg 75%
03:00 +12°C° 0 mm 1 m/s 724 mmHg 75%
04:00 +12°C° 0 mm 1 m/s 724 mmHg 75%
05:00 +12°C° 0 mm 1 m/s 724 mmHg 73%
06:00 +13°C° 0 mm 1 m/s 725 mmHg 71%
07:00 +14°C° 0 mm 1 m/s 725 mmHg 70%
08:00 +16°C° 0 mm 1 m/s 725 mmHg 63%
09:00 +18°C° 0 mm 2 m/s 725 mmHg 56%
10:00 +20°C° 0 mm 2 m/s 725 mmHg 50%
11:00 +21°C° 0 mm 2 m/s 725 mmHg 48%
12:00 +22°C° 0 mm 3 m/s 725 mmHg 46%
13:00 +24°C° 0 mm 3 m/s 725 mmHg 44%
14:00 +24°C° 0 mm 3 m/s 725 mmHg 46%
15:00 +22°C° 0 mm 3 m/s 724 mmHg 49%
16:00 +23°C° 0 mm 2 m/s 724 mmHg 52%
17:00 +20°C° 0 mm 2 m/s 724 mmHg 56%
18:00 +18°C° 0 mm 2 m/s 723 mmHg 61%
19:00 +16°C° 0 mm 2 m/s 723 mmHg 66%
20:00 +15°C° 0 mm 2 m/s 723 mmHg 68%
21:00 +15°C° 0 mm 2 m/s 723 mmHg 69%
22:00 +14°C° 0 mm 2 m/s 723 mmHg 71%
23:00 +14°C° 0 mm 2 m/s 723 mmHg 71%

22 Septembrie, Marţi

Timp Temperatura Precipitaţii Vânt Presiune Umiditate
00:00 +14°C° 0 mm 2 m/s 722 mmHg 71%
01:00 +13°C° 0 mm 2 m/s 722 mmHg 71%
02:00 +13°C° 0 mm 2 m/s 722 mmHg 71%
03:00 +13°C° 0 mm 2 m/s 722 mmHg 70%
04:00 +13°C° 0 mm 2 m/s 721 mmHg 69%
05:00 +13°C° 0 mm 2 m/s 721 mmHg 68%
06:00 +14°C° 0 mm 2 m/s 722 mmHg 67%
07:00 +14°C° 0 mm 2 m/s 722 mmHg 66%
08:00 +16°C° 0 mm 3 m/s 722 mmHg 61%
09:00 +18°C° 0 mm 3 m/s 722 mmHg 56%
10:00 +20°C° 0 mm 3 m/s 722 mmHg 51%
11:00 +21°C° 0 mm 4 m/s 721 mmHg 51%
12:00 +22°C° 0 mm 4 m/s 721 mmHg 51%
13:00 +22°C° 0 mm 5 m/s 721 mmHg 51%
14:00 +22°C° 0 mm 4 m/s 720 mmHg 54%
15:00 +22°C° 0 mm 4 m/s 720 mmHg 56%
16:00 +22°C° 0 mm 4 m/s 719 mmHg 58%
17:00 +20°C° 0 mm 3 m/s 719 mmHg 63%
18:00 +19°C° 0 mm 3 m/s 719 mmHg 69%
19:00 +17°C° 0 mm 3 m/s 719 mmHg 74%
20:00 +17°C° 0 mm 3 m/s 719 mmHg 76%
21:00 +16°C° 0 mm 2 m/s 719 mmHg 78%
22:00 +16°C° 0 mm 2 m/s 718 mmHg 80%
23:00 +16°C° 0 mm 2 m/s 718 mmHg 81%

23 Septembrie, Miercuri

Timp Temperatura Precipitaţii Vânt Presiune Umiditate
00:00 +16°C° 0 mm 2 m/s 718 mmHg 81%
01:00 +15°C° 0 mm 2 m/s 718 mmHg 82%
02:00 +15°C° 0 mm 2 m/s 718 mmHg 82%
03:00 +14°C° 0 mm 3 m/s 718 mmHg 83%
04:00 +14°C° 0 mm 3 m/s 718 mmHg 83%
05:00 +14°C° 0 mm 3 m/s 718 mmHg 83%
06:00 +14°C° 0 mm 3 m/s 718 mmHg 82%
07:00 +16°C° 0 mm 3 m/s 718 mmHg 81%
08:00 +17°C° 0 mm 4 m/s 718 mmHg 79%
09:00 +17°C° 0 mm 4 m/s 718 mmHg 77%
10:00 +18°C° 0 mm 4 m/s 718 mmHg 75%
11:00 +19°C° 0 mm 4 m/s 718 mmHg 70%
12:00 +21°C° 0 mm 4 m/s 718 mmHg 65%
13:00 +22°C° 0 mm 5 m/s 718 mmHg 59%
14:00 +22°C° 0 mm 4 m/s 717 mmHg 59%
15:00 +22°C° 0 mm 4 m/s 717 mmHg 59%
16:00 +22°C° 0 mm 3 m/s 717 mmHg 60%
17:00 +21°C° 0.1 mm 3 m/s 716 mmHg 66%
18:00 +19°C° 0.1 mm 3 m/s 716 mmHg 73%
19:00 +17°C° 0.1 mm 3 m/s 716 mmHg 80%
20:00 +17°C° 0 mm 3 m/s 716 mmHg 81%
21:00 +17°C° 0 mm 3 m/s 716 mmHg 82%
22:00 +16°C° 0 mm 3 m/s 716 mmHg 83%
23:00 +16°C° 0 mm 3 m/s 717 mmHg 82%
Arată mai mult